Theta_e
295 298 317 320 321 322 321 322 321 319 315 309 305 303 303 301 301 303 306 307 307 308 307 307 308 309 308 308 310 310 311 311 313 312 312 312 311 310 310 312 316 321 324
291 292 307 318 320 320 321 322 321 318 316 311 308 304 304 301 301 303 306 307 307 308 308 308 308 308 308 308 309 309 307 309 311 309 309 306 309 310 309 310 313 317 320
292 290 297 315 319 319 320 321 321 318 317 313 307 303 302 301 301 301 303 306 307 307 308 308 308 309 309 308 308 308 307 305 308 307 308 304 304 305 308 308 309 314 315
292 292 292 307 317 319 321 321 321 319 318 312 307 305 305 302 301 303 303 305 307 307 307 308 308 309 310 309 309 310 308 306 304 304 307 306 309 304 303 307 307 309 310
291 292 291 298 316 319 320 321 320 319 318 312 310 306 305 304 302 301 302 305 305 306 307 307 308 308 310 310 310 309 308 308 305 304 303 306 308 308 305 301 304 306 306
293 295 297 295 308 317 319 321 320 319 319 313 310 307 305 303 302 302 302 305 306 305 306 307 307 308 309 310 309 310 308 308 307 305 304 304 304 305 303 302 301 301 303
294 295 294 292 301 313 317 319 319 318 319 313 311 308 306 303 303 303 303 304 305 305 305 306 307 307 309 310 310 309 308 308 307 305 305 306 305 306 306 305 301 299 300
291 294 296 294 296 309 315 318 319 318 317 313 311 309 307 305 304 304 303 304 306 306 307 307 308 308 310 310 310 309 308 307 306 306 306 305 305 308 309 307 304 299 299
292 292 295 295 295 303 313 317 318 318 317 314 312 310 307 306 305 304 304 304 306 307 306 307 307 307 309 310 309 309 307 307 306 305 305 306 305 307 305 307 307 305 299
290 292 292 294 295 297 311 316 319 318 318 314 312 310 308 307 306 304 303 303 306 307 306 307 307 308 309 309 309 308 307 306 305 305 305 306 306 307 308 306 305 304 302
288 289 290 292 294 296 305 314 317 317 317 314 312 310 307 307 305 304 303 304 305 306 306 307 307 308 308 309 308 307 307 307 305 305 306 306 307 308 308 307 307 305 303
289 290 290 290 291 294 299 311 316 317 317 316 312 309 307 306 304 304 303 305 305 306 307 307 307 308 308 309 308 307 307 307 305 305 306 305 307 307 307 306 304 303 303
290 292 293 288 290 293 296 307 313 316 317 317 311 309 306 305 304 304 304 304 305 306 306 307 306 307 308 308 308 309 308 308 307 307 306 306 306 303 302 302 302 302 301
290 291 293 293 290 294 297 303 310 315 316 316 311 309 307 305 305 304 304 304 305 305 306 306 306 307 308 309 308 308 308 308 307 307 307 307 306 303 302 300 299 299 298
289 290 292 293 294 296 299 303 309 313 316 315 311 309 307 306 305 303 303 304 305 305 306 306 306 307 308 308 307 308 307 307 307 306 307 306 301 298 300 301 298 298 298
288 291 293 294 295 296 298 302 307 311 314 314 310 310 306 305 303 302 303 303 304 304 305 305 306 305 307 300 300 305 307 307 307 306 304 301 293 297 297 297 298 300 299
288 289 293 296 297 297 298 299 304 309 312 312 309 307 305 303 301 302 302 303 303 304 304 305 305 305 306 298 299 299 307 307 308 308 304 300 299 296 299 296 296 295 297
287 290 295 297 298 300 300 300 301 307 309 309 307 305 303 302 301 301 301 302 303 303 304 304 305 305 304 298 298 297 306 307 307 307 305 303 298 299 299 299 297 296 296
286 289 294 298 299 300 301 301 301 303 306 306 304 303 303 301 300 300 301 302 302 303 303 304 304 304 302 297 297 302 305 303 302 302 302 301 300 294 296 298 296 294 292
284 285 290 293 295 299 300 299 299 300 301 303 303 303 303 302 301 300 300 302 303 302 302 302 304 298 300 296 296 302 305 302 299 299 297 291 299 293 296 299 296 292 290
284 285 286 288 289 292 298 297 298 298 299 299 301 302 302 301 302 301 301 301 301 300 300 300 301 299 301 298 297 299 303 303 301 300 296 295 294 294 295 297 298 297 292
284 284 284 284 286 288 294 293 293 293 295 296 296 296 299 300 300 300 299 299 299 298 297 297 293 289 297 294 296 298 300 300 302 299 296 294 293 295 295 296 295 293 291
284 283 283 284 284 284 286 287 287 288 291 292 292 292 292 293 297 298 298 297 298 297 296 296 296 292 290 295 295 296 296 297 299 295 295 294 293 294 295 294 293 290 291
284 283 283 283 283 283 284 285 286 288 288 289 290 290 293 292 294 296 297 297 297 295 293 295 296 294 292 293 294 293 296 292 294 292 293 293 294 295 294 290 291 291 292
283 283 283 283 283 284 284 284 286 288 288 288 288 289 291 293 292 293 295 295 298 297 295 295 296 293 292 294 296 295 293 294 291 289 288 288 290 291 290 289 290 289 289
281 282 282 283 283 283 284 284 285 287 288 287 286 287 289 290 291 291 290 291 292 293 294 295 296 292 295 293 293 294 294 291 292 287 288 289 291 292 291 290 289 288 289
Wind_Speed
17 15 18 18 18 18 17 18 18 16 12 9 9 6 7 4 3 4 7 7 6 7 6 4 5 5 6 5 4 4 6 4 2 5 7 7 9 11 8 7 8 9 10
10 10 16 18 19 21 21 19 19 17 15 12 9 4 6 3 3 3 5 6 7 7 7 7 6 6 5 6 4 2 2 1 1 2 2 3 5 7 8 8 8 10 9
14 9 13 19 19 21 21 20 22 20 18 16 8 4 5 4 3 3 4 5 7 7 7 7 6 7 5 5 5 4 5 2 3 3 3 2 3 1 5 9 8 10 10
9 9 12 17 19 21 19 21 21 21 19 19 14 14 12 10 5 7 5 6 7 7 7 7 6 7 6 5 4 4 3 4 3 2 3 3 4 2 3 5 7 10 10
11 12 12 17 18 20 20 20 21 21 19 19 19 14 12 7 5 4 8 7 5 7 7 7 7 7 5 6 6 4 4 3 3 3 2 3 3 3 3 4 4 9 7
14 15 16 16 19 19 21 21 22 22 21 20 20 20 17 12 10 10 9 8 6 6 7 7 7 6 6 6 5 5 5 4 4 3 3 4 4 4 3 4 4 6 5
17 18 18 14 18 21 22 20 23 23 22 21 21 21 18 16 15 14 11 12 8 6 9 8 8 6 5 6 6 5 5 5 5 5 4 2 4 4 4 7 4 4 3
10 14 15 14 19 22 23 24 25 24 23 22 22 20 18 12 11 13 11 10 10 9 10 9 8 7 7 6 6 4 4 5 5 7 4 4 5 7 8 5 11 6 3
13 15 15 16 19 21 25 26 24 24 24 23 19 19 18 17 15 15 12 10 10 9 11 10 10 8 7 7 6 4 5 5 5 5 6 6 4 6 4 5 5 8 6
10 12 12 14 16 19 22 24 25 27 25 23 20 18 18 17 14 13 14 13 11 12 12 11 10 9 8 7 7 5 5 6 4 4 7 6 5 7 6 4 3 2 4
8 9 9 9 16 17 21 23 23 24 23 21 20 18 16 17 14 14 14 13 12 13 13 13 12 11 10 8 8 6 7 8 7 6 9 8 9 7 7 4 5 5 3
8 8 9 8 9 15 18 22 21 22 22 21 19 19 17 17 16 15 15 15 14 13 14 13 12 11 10 9 9 8 7 10 9 9 9 10 8 9 7 5 5 4 3
9 8 8 7 6 12 16 20 20 21 21 21 20 18 17 17 17 16 15 15 15 14 14 14 13 12 12 10 9 9 9 9 9 10 11 11 11 7 4 5 6 5 4
8 9 8 8 4 5 11 17 17 18 20 21 19 19 18 18 17 15 15 16 15 15 15 14 13 12 12 11 10 10 9 8 8 8 9 10 11 9 8 6 7 6 7
10 8 8 7 5 1 3 7 12 16 20 20 18 19 16 16 15 15 15 15 15 14 15 14 13 12 12 9 12 11 11 11 9 6 8 8 8 11 10 9 8 9 6
12 11 8 8 6 1 3 6 10 14 16 17 16 17 16 16 15 15 15 15 14 14 14 14 14 13 9 13 14 12 11 11 12 10 7 7 9 10 12 11 11 11 14
13 13 8 6 6 4 3 3 7 11 15 15 14 15 16 16 16 15 15 15 15 15 15 14 14 14 11 17 16 14 10 11 11 12 10 7 5 8 8 10 12 8 7
15 15 9 6 4 4 4 5 4 9 12 13 14 15 15 15 15 15 15 15 14 16 15 14 14 13 10 17 17 16 10 9 10 11 11 10 9 8 10 10 8 7 6
13 12 12 7 4 4 3 4 5 6 10 12 14 15 16 16 15 16 16 13 14 13 14 14 14 14 10 17 17 15 10 8 8 8 9 10 10 13 15 11 10 7 3
16 15 14 9 9 5 3 4 4 5 7 9 12 13 14 15 16 15 15 13 13 13 10 12 12 12 11 16 18 13 8 10 6 6 6 11 11 17 17 12 12 9 6
18 17 13 10 10 9 2 4 5 5 5 7 9 10 11 14 15 14 11 12 11 11 11 11 9 10 12 13 18 15 9 9 8 7 6 5 15 17 15 13 10 9 11
19 17 13 11 12 11 6 4 6 3 6 7 8 8 10 8 10 14 10 12 12 11 10 10 6 3 7 12 14 16 11 11 10 8 5 6 16 18 15 13 10 17 10
13 12 12 12 12 12 10 7 7 5 3 6 7 7 8 7 10 13 12 10 11 10 10 10 9 6 4 6 14 15 15 14 8 5 8 11 16 16 11 12 16 13 7
9 10 13 15 14 12 11 7 6 5 4 5 6 6 9 8 8 8 9 10 10 9 9 9 9 7 6 7 7 6 8 11 8 10 7 8 10 10 8 7 10 6 7
10 9 11 11 12 10 11 11 9 6 6 5 4 5 5 9 7 6 7 9 9 12 13 11 10 11 9 10 14 12 8 8 8 8 5 4 5 7 6 4 6 5 5
8 8 8 10 12 12 12 12 11 8 5 5 3 3 4 5 6 7 5 10 8 10 8 10 10 6 8 16 18 17 15 17 20 4 5 5 7 9 9 8 6 4 6
Wind_Direction
233 212 203 196 194 191 186 190 188 171 160 164 167 165 177 167 179 179 168 164 153 154 147 136 135 142 131 138 144 108 105 93 88 88 75 64 53 41 26 23 31 40 60
231 214 204 194 189 189 192 188 192 175 173 172 179 163 157 157 158 171 171 168 158 160 154 150 150 159 141 141 162 131 100 81 32 101 70 53 36 29 20 27 35 47 60
229 215 205 198 190 193 190 190 189 184 175 169 148 109 89 82 117 186 177 183 165 167 159 160 155 165 160 159 172 170 146 167 39 47 118 104 83 86 2 24 35 47 60
221 214 198 202 197 197 191 190 188 183 179 168 167 172 183 178 187 176 167 170 169 169 165 164 161 164 168 170 178 173 152 135 149 64 34 100 107 117 94 31 30 49 48
224 222 203 199 202 193 192 190 186 185 179 176 172 176 183 179 155 138 158 168 170 169 170 167 165 165 168 176 172 178 175 156 148 139 160 85 88 58 102 102 83 60 34
230 235 228 200 202 199 193 187 184 186 183 180 174 181 182 168 159 167 172 175 175 173 174 170 168 168 167 174 166 177 183 176 150 146 161 140 142 144 129 108 83 89 33
228 230 229 200 202 197 193 189 184 187 187 181 180 182 182 174 175 176 176 171 174 183 184 171 172 173 167 170 157 168 183 174 161 156 155 119 119 121 111 125 110 104 39
240 243 238 214 205 196 191 188 186 185 186 182 184 182 179 179 182 181 178 180 181 179 172 174 173 170 163 167 158 155 167 154 152 153 144 127 125 134 144 145 139 110 81
246 241 244 219 207 198 192 189 185 186 185 183 182 183 180 180 183 181 178 177 174 173 171 172 173 171 164 166 157 157 159 149 146 152 138 135 134 129 118 138 160 139 141
262 253 231 220 208 199 191 187 185 185 184 183 182 182 182 181 176 170 175 173 170 168 171 171 173 172 167 165 158 155 151 141 134 139 138 135 140 135 136 151 134 99 113
273 273 270 237 204 190 189 188 185 183 185 182 178 177 177 177 170 174 173 172 166 169 173 173 172 172 170 166 160 159 152 144 139 138 149 149 151 149 140 128 109 117 103
287 290 286 251 198 188 186 189 184 182 184 177 175 175 173 170 171 176 176 170 171 171 172 171 172 172 170 167 165 159 160 154 154 153 152 150 146 144 142 139 126 129 102
324 310 331 295 230 195 183 184 184 180 178 177 171 172 171 173 177 177 172 170 168 170 171 171 173 174 170 169 166 165 161 161 161 163 158 158 151 143 134 125 123 110 99
329 313 327 325 278 248 190 179 181 177 174 176 171 171 172 175 177 172 171 169 169 167 171 173 172 174 168 171 166 163 158 157 157 164 159 161 161 151 142 132 126 122 117
344 322 326 332 331 157 160 161 171 170 174 174 172 172 169 173 170 166 166 167 168 170 169 166 170 170 172 172 168 168 162 159 152 153 154 160 150 145 154 148 148 136 129
352 329 321 334 339 329 147 145 159 163 174 172 172 166 164 167 164 163 163 163 166 166 165 170 170 170 177 168 163 164 164 162 162 164 157 144 139 146 147 131 146 154 152
337 333 321 322 346 25 69 136 154 155 170 168 163 162 162 164 165 162 162 165 166 164 170 171 170 174 176 166 164 160 165 166 171 171 164 150 147 141 135 131 126 116 121
343 337 331 333 360 18 59 98 122 158 162 163 158 157 162 163 162 162 167 167 166 169 171 172 173 171 173 168 163 160 159 167 171 169 169 166 158 154 141 146 136 141 142
348 344 339 344 352 25 62 88 96 133 149 155 156 159 162 162 161 166 168 168 166 168 172 172 169 172 170 168 163 160 161 160 161 154 158 159 161 156 144 149 144 136 114
353 354 339 6 10 354 66 111 121 125 136 145 150 157 161 163 166 167 168 168 169 167 162 167 174 168 165 170 165 162 162 161 153 139 145 154 161 159 155 154 153 148 168
350 357 351 11 356 341 38 111 136 132 128 122 138 151 158 163 164 162 165 159 158 155 161 160 163 164 166 173 166 160 168 166 164 161 159 165 153 159 159 153 168 165 153
350 354 353 7 3 2 16 59 56 352 133 129 129 135 150 155 157 156 155 157 152 151 154 152 134 135 156 162 171 163 158 158 165 169 161 165 163 162 160 157 144 138 132
337 348 346 5 9 9 13 35 351 3 115 126 135 138 132 139 154 155 154 151 155 156 159 163 164 159 146 162 165 159 153 158 154 152 161 157 166 162 155 146 142 140 142
329 335 6 9 4 3 6 3 339 15 66 122 134 138 144 139 145 153 160 158 160 159 161 167 172 159 162 163 165 161 153 143 146 139 144 164 160 159 150 133 147 159 163
340 341 1 360 355 357 12 356 1 15 60 69 92 118 137 148 140 137 160 166 178 173 168 178 171 162 177 191 176 165 159 162 150 125 114 124 137 153 153 146 162 153 153
341 355 360 355 341 2 10 7 360 3 46 59 62 63 115 122 131 133 100 53 103 106 91 137 169 170 146 151 168 168 154 146 144 112 149 157 164 171 172 171 170 169 178